User: anonymous   Login
Location: Unspecified
(0.0000°N, 0.0000°E)
Time: 06:59:21
(UTC+01:00)
Language:

Iridium 75 - Orbit

View from above orbital plane
View from above orbital plane
View from above satellite
View from above satellite

Ground track
Ground track

The orbit data is extracted from the following two-line orbital elements,

1 25346U 98032E   15057.52630873  .00000219  00000-0  71017-4 0  9996
2 25346 086.3973 215.8713 0002073 110.4893 315.0967 14.34219207879034
Epoch (UTC): 26 February 2015 12:37:53
Eccentricity: 0.0002073
inclination: 86.3973°
perigee height: 776 km
apogee height: 779 km
right ascension of ascending node: 215.8713°
argument of perigee: 110.4893°
revolutions per day: 14.34219207
mean anomaly at epoch: 315.0967°
orbit number at epoch: 87903

The dashed part of the orbit path shows where the satellite is in the earth's shadow,  

DLR